Regional Weather Roundup
Issued by NWS San Diego, CA

Home | Current Version | Previous Version | Text Only | Print | Product List | Glossary On
Versions: 1 2 3 4 5 6 7 8 9 10 11 12 13 14 15 16 17 18 19 20 21 22 23 24 25 26 27 28 29 30 31 32 33 34 35 36 37 38 39 40 41 42 43 44 45 46 47 48 49 50
000
ASUS46 KSGX 211711
RWRSGX

SAN DIEGO HOURLY WEATHER ROUNDUP
NATIONAL WEATHER SERVICE SAN DIEGO CA
900 AM PST SAT JAN 21 2017

NOTE: "FAIR" INDICATES FEW OR NO CLOUDS BELOW 12,000 FEET WITH NO
SIGNIFICANT WEATHER AND/OR OBSTRUCTIONS TO VISIBILITY.

CAZ042-043-060-061-PZZ750-775-211800-

GREATER SAN DIEGO AREA

CITY           SKY/WX    TMP DP  RH WIND       PRES   REMARKS
SAN DIEGO AP   PTSUNNY   57  42  57 W8        29.94R
NATIONAL CITY    N/A     56  46  67 NW10      29.93R
CHULA VISTA      N/A     57  48  71 W9        29.84R
BROWN FIELD    PTSUNNY  N/A N/A N/A W10       29.92R
MIRAMAR MCAS   PTSUNNY   59  44  57 NW8       29.91R
MONTGOMERY FLD PTSUNNY   55  42  61 W12       29.92R

$$

NORTH SAN DIEGO COUNTY

CITY           SKY/WX    TMP DP  RH WIND       PRES   REMARKS
CAMP PENDLETON PTSUNNY   54  45  71 N5        29.88R
OCEANSIDE AP   MOSUNNY   57  45  64 NW13G22   29.88R
OCEANSIDE HBR    N/A     57  46  66 W21       29.91R
VISTA            N/A     53  46  77 W3        29.87R
CARLSBAD       PTSUNNY   55  44  66 VRB5      29.88R
DEL MAR          N/A     56  47  72 CALM      29.93R
LA JOLLA SCRIP   N/A     56  47  71 W6        29.92R
FALLBROOK        N/A     51  49  95 W5        29.87R
ESCONDIDO        N/A     54  46  75 W9        29.92R
SAN MARCOS       N/A     53  45  74 NW10      29.91R
POWAY            N/A     54  46  76 CALM      29.93R

$$

EAST SAN DIEGO COUNTY

CITY           SKY/WX    TMP DP  RH WIND       PRES   REMARKS
RAMONA         LGT RAIN  49  44  83 W13       29.89R
SANTEE LAKES     N/A     55  47  73 W6        29.91R
LA MESA          N/A     52  47  84 W3        29.86R
JAMUL            N/A     49  47  93 CALM      29.94R
DESCANSO N       N/A     38  37  97 SW12      29.87R WCI  30
CAMPO            N/A     43  40  89 W21G28    29.81R

$$

ORANGE COUNTY AND THE LOS ANGELES BASIN

CITY           SKY/WX    TMP DP  RH WIND       PRES   REMARKS
JOHN WAYNE AP  MOSUNNY   55  44  66 CALM      29.88R
LAGUNA BEACH     N/A     54  47  77 W3        29.84R
LAKE FOREST FR   N/A     48  40  74 NW3       29.78R
HUNTINGTON BCH   N/A     56  48  72 NE2       29.90R
LOS ALAMITOS   MOSUNNY   53  44  70 NW9       29.88R
FULLERTON      SUNNY     52  44  74 CALM      29.88R
LONG BEACH     SUNNY     53  44  71 NW6       29.88R
L.A. AP        MOSUNNY   55  42  61 VRB6      29.88R
L.A. DOWNTOWN  SUNNY     54  41  61 VRB3      29.87R

$$

THE INLAND EMPIRE

CITY           SKY/WX    TMP DP  RH WIND       PRES   REMARKS
CORONA         SUNNY     52  42  69 W7        29.87R
CHINO          MOSUNNY   52  42  69 NE3       29.88R
ONTARIO        MOSUNNY   47  41  80 NW8       29.86R
SAN BERNARDINO MOSUNNY   48  39  71 SW5       29.87R
RIVERSIDE AP   MOSUNNY   49  42  77 W3        29.87R
MORENO VALLEY    N/A     45  44  97 NW5       27.97R
MARCH ARB      MOSUNNY   47  45  93 NW3       29.86R
HORSETHIEF CYN   N/A     50  34  54 CALM      29.89R
PERRIS           N/A     45  43  91 N1        29.88R
HEMET EAST       N/A     43  36  75 CALM      29.95R
FRENCH VALLEY  NOT AVBL
TEMECULA         N/A     48  45  89 S2        29.93R

$$

SAN BERNARDINO AND RIVERSIDE COUNTY MOUNTAINS

CITY           SKY/WX    TMP DP  RH WIND       PRES   REMARKS
BIG BEAR AP    PTSUNNY   27  19  74 W10G22    29.75R WCI  17
PINE COVE        N/A     26  26  99 CALM      29.89R

$$

SOUTHERN DESERT INCLUDING THE COACHELLA VALLEY

CITY           SKY/WX    TMP DP  RH WIND       PRES   REMARKS
PALM SPRINGS   SUNNY     56  38  50 CALM      29.79R
PALM DESERT      N/A     55  40  57 CALM      28.20
THERMAL        SUNNY     57  40  52 NW12      29.79R
BLYTHE         SUNNY     54  39  57 W12       29.76R
IMPERIAL AP    SUNNY     56  39  53 SW12G21   29.82R
EL CENTRO NAS  LGT RAIN  57  40  52 SW17G25   29.84R
YUMA AZ        SUNNY     56  41  57 W13G22    29.82
MEXICALI       SUNNY     55  37  50 SW12      29.82

$$

UPPER DESERT

CITY           SKY/WX    TMP DP  RH WIND       PRES   REMARKS
VICTORVILLE AP SUNNY     41  34  75 W14       29.81R
HESPERIA         N/A     43  31  63 NW5       29.99R
PALMDALE       SUNNY     45  35  68 W23       29.84R
LANCASTER      SUNNY     44  35  70 W26G32    29.84R
EDWARDS AFB    MOSUNNY   42  37  80 SW18      29.81R
DAGGETT        SUNNY     46  32  58 W32G45    29.74R
29 PALMS N     SUNNY     48  28  46 NW23G35   29.79R
NEEDLES        SUNNY     55  31  39 NW22G32   29.71R

$$

REGIONAL REPORTS

CITY           SKY/WX    TMP DP  RH WIND       PRES   REMARKS
SANTA BARBARA  SUNNY     55  43  63 W9        29.88R
SANDBERG       LGT SNOW  36  32  85 NW9       29.84R FOG     WCI  29
LAS VEGAS NV   MOSUNNY   48  30  49 S8        29.65R
PHOENIX AZ     MOSUNNY   53  40  61 SW20G28   29.73R
TIJUANA        MOSUNNY   55  43  62 W8        29.95R

$$

OFFSHORE ISLANDS

CITY           SKY/WX    TMP DP  RH WIND       PRES   REMARKS
CATALINA ARPT  SUNNY     49  43  80 W21G29    29.88R
SAN CLEMENTE I MOSUNNY   56  45  66 W17       29.92R
SAN NICOLAS IS   N/A    N/A N/A N/A MISG      29.93R

$$

MARINE AND OFFSHORE BUOY REPORTS

STATION/POSITION SKY/WX   TEMP    WIND        PRES    VSBY  SWELL
                          AIR SEA DIR/SP/G                  HT/PER/DIR
                          (F)     (DEG/KT/KT) (MB)    (MI)  (FT/S/D)
TANNER BANKS               57 58  300/ 14/ 19 1013.6R        16/320/14
S CLEMENTE BASIN           56 60  290/ 19/ 23 1012.8R        13/290/13
SAN NICOLAS IS.               58                N/A          18/290/14
SO. S. ROSA ISLA           54 57  290/ 14/ 17 1012.9R        23/290/16
W. S. BARBARA CH           55 57  300/ 12/ 16 1012.6R        20/280/15
M. S. BARBARA CH                  280/ 10/ 16 1013.0R
S. MONICA BASIN            56 58  270/ 16/ 19 1012.0R        10/270/13
S PEDRO CHANNEL               59                N/A           7/270/13
CMP PENDLETON NS              59                N/A           5/250/13
OCEANSIDE OFFSHR              59                N/A           5/250/13
TORREY PINES OTR              59                N/A           7/260/11
POINT LOMA SOUTH              60                N/A           8/270/13

$$




USA.gov is the U.S. government's official web portal to all federal, state and local government web resources and services.